Location: Gwatt
(46.7204°N, 7.6223°E)
Time: 06:48:28
(UTC+00:00)

CZ-2C R/B - Pass Details

Date: 18 September 2020
Orbit: 785 x 870 km, 98.2° (Epoch: 23 October)

Event Time Altitude Azimuth Distance (km) Brightness Sun altitude
Rises 19:16:40 0° 14° (NNE) 3,411 6.0 -17.9°
Reaches altitude 10° 19:19:01 10° 15° (NNE) 2,483 5.2 -18.2°
Maximum altitude 19:24:34 83° 103° (ESE) 872 2.6 -19.1°
Drops below altitude 10° 19:30:10 10° 192° (SSW) 2,504 5.0 -20.0°
Sets 19:32:33 0° 194° (SSW) 3,441 5.8 -20.3°
